TimeCST,TemperatureF,Dew PointF,Humidity,Sea Level PressureIn,VisibilityMPH,Wind Direction,Wind SpeedMPH,Gust SpeedMPH,PrecipitationIn,Events,Conditions,WindDirDegrees,DateUTC
12:53 AM,66.0,62.1,87,30.14,10.0,South,10.4,-,N/A,,Overcast,180,2012-12-04 06:53:00
1:53 AM,64.9,62.1,90,30.14,10.0,South,10.4,-,N/A,,Overcast,170,2012-12-04 07:53:00
2:02 AM,64.4,62.6,94,30.16,10.0,South,8.1,-,N/A,,Overcast,170,2012-12-04 08:02:00
2:53 AM,66.0,63.0,90,30.13,10.0,South,11.5,-,N/A,,Overcast,170,2012-12-04 08:53:00
3:53 AM,66.0,63.0,90,30.14,10.0,South,6.9,-,N/A,,Overcast,180,2012-12-04 09:53:00
4:53 AM,66.0,63.0,90,30.14,10.0,South,8.1,-,0.00,,Mostly Cloudy,170,2012-12-04 10:53:00
5:53 AM,66.0,64.0,93,30.16,10.0,South,6.9,-,N/A,,Overcast,180,2012-12-04 11:53:00
6:14 AM,66.2,64.4,94,30.18,10.0,South,9.2,-,N/A,,Overcast,170,2012-12-04 12:14:00
6:30 AM,66.2,64.4,94,30.19,10.0,SSE,9.2,-,N/A,,Overcast,160,2012-12-04 12:30:00
6:51 AM,66.2,64.4,94,30.19,9.0,South,6.9,-,N/A,,Overcast,170,2012-12-04 12:51:00
6:53 AM,66.0,64.0,93,30.18,8.0,SSE,8.1,-,N/A,,Overcast,160,2012-12-04 12:53:00
7:16 AM,66.2,64.4,94,30.21,8.0,South,5.8,-,N/A,,Overcast,180,2012-12-04 13:16:00
7:53 AM,66.9,64.0,90,30.19,8.0,South,8.1,-,N/A,,Overcast,170,2012-12-04 13:53:00
8:53 AM,68.0,64.9,90,30.19,10.0,South,11.5,-,N/A,,Overcast,170,2012-12-04 14:53:00
9:40 AM,69.8,64.4,83,30.22,10.0,South,10.4,-,0.00,,Overcast,180,2012-12-04 15:40:00
9:53 AM,69.1,64.9,87,30.20,10.0,South,9.2,-,0.00,,Overcast,180,2012-12-04 15:53:00
10:53 AM,69.1,64.9,87,30.19,10.0,South,10.4,-,0.00,Rain,Light Rain,170,2012-12-04 16:53:00
11:28 AM,69.8,64.4,83,30.21,10.0,South,8.1,19.6,0.00,,Overcast,170,2012-12-04 17:28:00
11:37 AM,69.8,64.4,83,30.21,10.0,South,5.8,-,0.00,,Overcast,190,2012-12-04 17:37:00
11:53 AM,70.0,64.9,84,30.18,10.0,South,10.4,-,0.00,,Overcast,180,2012-12-04 17:53:00
12:53 PM,71.1,64.9,81,30.15,10.0,South,11.5,-,N/A,,Mostly Cloudy,180,2012-12-04 18:53:00
1:24 PM,73.4,64.4,73,30.14,10.0,South,9.2,-,N/A,,Scattered Clouds,190,2012-12-04 19:24:00
1:53 PM,73.9,62.1,66,30.11,10.0,South,8.1,-,N/A,,Partly Cloudy,180,2012-12-04 19:53:00
2:53 PM,73.9,61.0,64,30.11,10.0,South,9.2,-,N/A,,Clear,190,2012-12-04 20:53:00
3:53 PM,72.0,60.1,66,30.10,10.0,SSE,10.4,-,N/A,,Clear,160,2012-12-04 21:53:00
4:53 PM,69.1,60.1,73,30.14,10.0,Calm,Calm,-,N/A,,Clear,0,2012-12-04 22:53:00
5:53 PM,66.9,61.0,81,30.15,10.0,SSE,3.5,-,N/A,,Mostly Cloudy,150,2012-12-04 23:53:00
6:53 PM,66.9,63.0,87,30.15,10.0,SSE,4.6,-,0.00,,Overcast,150,2012-12-05 00:53:00
7:49 PM,62.6,57.2,82,30.21,10.0,Variable,6.9,24.2,0.01,Rain,Light Rain,0,2012-12-05 01:49:00
7:53 PM,61.0,55.9,83,30.20,4.0,NNE,12.7,19.6,0.09,Rain,Light Rain,20,2012-12-05 01:53:00
7:56 PM,60.8,57.2,88,30.22,1.5,NNE,13.8,24.2,0.13,Rain,Heavy Rain,30,2012-12-05 01:56:00
8:06 PM,59.0,57.2,94,30.22,1.0,NNE,6.9,20.7,0.28,Rain,Heavy Rain,20,2012-12-05 02:06:00
8:15 PM,59.0,57.2,94,30.23,2.0,North,6.9,-,0.32,Rain,Heavy Rain,350,2012-12-05 02:15:00
8:25 PM,59.0,57.2,94,30.22,3.0,NNE,8.1,-,0.36,Rain,Heavy Rain,20,2012-12-05 02:25:00
8:32 PM,59.0,57.2,94,30.22,2.0,NE,8.1,-,0.42,Rain,Heavy Rain,40,2012-12-05 02:32:00
8:39 PM,59.0,57.2,94,30.23,1.8,NE,5.8,-,0.47,Rain,Heavy Rain,40,2012-12-05 02:39:00
8:53 PM,59.0,57.0,93,30.20,2.5,NNE,8.1,-,0.55,Rain,Rain,30,2012-12-05 02:53:00
9:01 PM,59.0,57.2,94,30.22,4.0,ENE,6.9,-,0.02,Rain,Rain,60,2012-12-05 03:01:00
9:53 PM,59.0,57.0,93,30.21,5.0,East,4.6,-,0.07,Rain,Rain,90,2012-12-05 03:53:00
10:05 PM,59.0,57.2,94,30.22,5.0,East,3.5,-,0.02,Rain,Rain,100,2012-12-05 04:05:00
10:53 PM,57.9,57.0,97,30.18,10.0,Calm,Calm,-,0.06,Rain,Light Rain,0,2012-12-05 04:53:00
11:53 PM,57.9,57.0,97,30.16,10.0,SE,4.6,-,0.01,,Overcast,140,2012-12-05 05:53:00